{"data":{"norad_id":63473,"intl_designator":"2025-070P","name":"STARLINK-33765","alt_names":[],"object_type":"PAYLOAD","status":"ACTIVE","operator":null,"country":"US","launch_date":"2025-04-06","launch_site_code":"AFETR","launch_vehicle":null,"mission":null,"orbit_class":"UNKNOWN","rcs_meters":null,"size_class":null,"mass_kg":null,"dimensions":null,"purposes":["comms"],"wikipedia_slug":null,"has_3d_model":false,"image_url":null,"decayed_at":null,"tle_current":{"epoch":"2026-09-20T15:53:30.643872Z","epoch_age_seconds":141548,"freshness":"FRESH","line1":"1 63473U 25070P   26263.66216023  .00011768  00000+0  43626-3 0  9998","line2":"2 63473  43.0025 238.8118 0001666 283.6313  76.4353 15.27597445 82798","mean_motion":15.27597445,"eccentricity":0.0001666,"inclination_deg":43.0025,"raan_deg":238.8118,"arg_perigee_deg":283.6313,"mean_anomaly_deg":76.4353,"bstar":0.00043626,"rev_number":8279,"period_min":94.265672197429,"perigee_km":481.8537950299,"apogee_km":484.13992483203,"semimajor_km":6861.133859931,"source":"CELESTRAK","updated_at":"2026-09-21T09:00:35.009861Z"}}}